Tacoma Narrows, WA
on Wednesday, January 23, 2013

Wednesday
Previous Day Next Day
Daily Summary
 ActualAverageRecord
Temperature
Mean Temperature °F °F  
Max Temperature 41°F 45°F 57°F (2002)
Min Temperature 37°F 37°F 25°F (2008)
Degree Days
Heating Degree Days 26    
Moisture
Dew Point 36°F   
Average Humidity 85    
Maximum Humidity 89    
Minimum Humidity 73    
Precipitation
Precipitation 0.18 in in in ()
Wind
Wind Speed 7 mph   
Max Wind Speed 16 mph   
Max Gust Speed 22 mph   
Visibility 8 miles   
Events Rain   
Averages and records for this station are not official NWS values.
Key: T is trace of precipitation, MM is missing value
Source: NWS Daily Summary
Seasonal Weather Averages
Time(PST)TemperatureDew PointHumidity Pressure Visibility Wind DirectionWind SpeedGust SpeedPrecipitationEvents Conditions
12:53 AM 39.0°F 33.1°F 79% 29.95 in 10.0 miles SSE 8.1 mph 16.1 mph N/A   Overcast
1:53 AM 37.9°F 32.0°F 79% 29.94 in 10.0 miles WSW 4.6 mph - N/A   Overcast
2:53 AM 39.0°F 33.1°F 79% 29.96 in 10.0 miles SE 8.1 mph - N/A   Overcast
3:53 AM 39.9°F 32.0°F 73% 29.93 in 10.0 miles NNW 4.6 mph - N/A   Overcast
4:53 AM 39.9°F 34.0°F 79% 29.93 in 10.0 miles Calm Calm - N/A   Overcast
5:53 AM 39.9°F 33.1°F 77% 29.93 in 10.0 miles SE 4.6 mph - N/A   Overcast
6:53 AM 39.2°F 33.8°F 81% 29.89 in 10.0 miles WSW 3.5 mph - N/A   Overcast
7:53 AM 41.0°F 34.0°F 76% 29.89 in 10.0 miles Calm Calm - N/A   Overcast
8:53 AM 39.9°F 35.1°F 83% 29.89 in 10.0 miles Calm Calm - N/A   Overcast
9:53 AM 41.0°F 37.0°F 86% 29.90 in 10.0 miles SE 3.5 mph - 0.00 in Rain Light Rain
10:53 AM 39.9°F 36.0°F 86% 29.92 in 8.0 miles South 5.8 mph - 0.01 in Rain Light Rain
11:53 AM 39.9°F 36.0°F 86% 29.88 in 8.0 miles Calm Calm - 0.02 in Rain Light Rain
12:53 PM 39.9°F 37.0°F 89% 29.87 in 5.0 miles Calm Calm - 0.02 in Rain Light Rain
1:09 PM 39.2°F 35.6°F 87% 29.85 in 4.0 miles Variable 5.8 mph - N/A Rain Light Rain
1:53 PM 39.0°F 36.0°F 89% 29.87 in 4.0 miles SSW 6.9 mph - 0.02 in Rain Light Rain
2:30 PM 39.2°F 35.6°F 87% 29.87 in 3.0 miles SSW 5.8 mph - 0.04 in Rain Light Rain
2:53 PM 39.0°F 36.0°F 89% 29.89 in 3.0 miles SSW 6.9 mph - 0.05 in Rain Light Rain
2:56 PM 39.2°F 35.6°F 87% 29.88 in 3.0 miles SSW 6.9 mph - 0.01 in Rain Light Rain
3:53 PM 39.0°F 36.0°F 89% 29.91 in 3.0 miles South 10.4 mph - 0.05 in Rain Light Rain
4:53 PM 41.0°F 37.0°F 86% 29.94 in 10.0 miles South 11.5 mph 21.9 mph 0.01 in   Overcast
5:53 PM 41.0°F 37.0°F 86% 29.95 in 10.0 miles South 12.7 mph 21.9 mph N/A   Mostly Cloudy
6:09 PM 41.0°F 37.4°F 87% 29.95 in 10.0 miles South 15.0 mph 21.9 mph N/A   Scattered Clouds
6:53 PM 41.0°F 37.0°F 86% 29.99 in 10.0 miles South 13.8 mph 21.9 mph N/A   Overcast
7:22 PM 41.0°F 37.4°F 87% 30.00 in 10.0 miles South 11.5 mph - N/A   Overcast
7:53 PM 41.0°F 37.0°F 86% 30.04 in 10.0 miles South 10.4 mph - N/A   Overcast
8:00 PM 41.0°F 37.4°F 87% 30.03 in 10.0 miles South 10.4 mph - N/A   Overcast
8:53 PM 39.9°F 36.0°F 86% 30.06 in 10.0 miles South 16.1 mph 21.9 mph N/A   Overcast
9:53 PM 41.0°F 37.0°F 86% 30.10 in 10.0 miles South 11.5 mph - N/A   Overcast
10:06 PM 41.0°F 37.4°F 87% 30.10 in 10.0 miles SSW 11.5 mph 21.9 mph N/A   Overcast
10:35 PM 41.0°F 37.4°F 87% 30.11 in 10.0 miles South 13.8 mph 21.9 mph N/A   Mostly Cloudy
10:53 PM 39.9°F 37.0°F 89% 30.12 in 10.0 miles South 12.7 mph - N/A   Partly Cloudy
11:53 PM 39.9°F 37.0°F 89% 30.15 in 10.0 miles South 15.0 mph - N/A   Partly Cloudy
Moon Phase
Jan. 23 Jan. 26 Feb. 03 Feb. 10 Feb. 17
Sunrise:07:45 AM (PST) Moon Rise:02:11 PM (PST)1/23
Sunset:04:59 PM (PST) Moon Set:05:05 AM (PST)1/23

Copyright © 2014 The Weather Underground, Inc.